User: anonymous   Login
Location: Dappach
(48.9767°N, 9.6998°E)
Time: 11:53:20
(UTC+00:00)
Language:

Cosmos 2151 Rocket - Orbit

View from above orbital plane
View from above orbital plane
View from above satellite
View from above satellite

Ground track
Ground track

The orbit data is extracted from the following two-line orbital elements,

1 21423U 91042B   24205.30783421  .00001003  00000-0  12668-3 0  9999
2 21423  82.4916  57.2324 0018198  37.3418 322.9057 14.80846482765078
Epoch (UTC): 23 July 2024 07:23:16
Eccentricity: 0.0018198
inclination: 82.4916°
perigee height: 614 km
apogee height: 639 km
right ascension of ascending node: 57.2324°
argument of perigee: 37.3418°
revolutions per day: 14.80846482
mean anomaly at epoch: 322.9057°
orbit number at epoch: 76507

The dashed part of the orbit path shows where the satellite is in the earth's shadow,  

DLR